Regional Weather Roundup
Issued by NWS

Home | Current Version | Previous Version | Text Only | Print | Product List | Glossary Off
Versions: 1 2 3 4 5 6 7 8 9 10 11 12 13 14 15 16 17 18 19 20 21 22 23 24 25 26 27 28 29 30 31 32 33 34 35 36 37 38 39 40 41 42 43 44 45 46 47 48 49 50

776
ASUS43 KBIS 281602
RWRND

NORTH DAKOTA REGIONAL WEATHER ROUNDUP
NATIONAL WEATHER SERVICE BISMARCK ND
1100 AM CDT SUN AUG 28 2016

NOTE: "FAIR" INDICATES FEW OR NO CLOUDS BELOW 12,000 FEET WITH NO
SIGNIFICANT WEATHER AND/OR OBSTRUCTIONS TO VISIBILITY.


NDZ001>003-009>011-017-281700-
NORTHWEST NORTH DAKOTA

CITY           SKY/WX    TMP DP  RH WIND       PRES   REMARKS
WILLISTON      CLOUDY    75  54  47 SW8       29.86S
MINOT          SUNNY     80  60  50 SE9       29.87S
MINOT AFB      SUNNY     79  60  51 SE12      29.86S
$$

NDZ018>021-031>035-040>046-281700-
SOUTHWEST NORTH DAKOTA

CITY           SKY/WX    TMP DP  RH WIND       PRES   REMARKS
BISMARCK       SUNNY     74  63  68 SE8       29.91S
DICKINSON      SUNNY     78  52  40 VRB3      29.90S
GARRISON         N/A     74  61  63 S8        29.89F
HETTINGER ARPT SUNNY     80  55  42 W3        29.94S
$$

NDZ004>008-012>016-024-026-027-054-281700-
NORTHEAST NORTH DAKOTA

CITY           SKY/WX    TMP DP  RH WIND       PRES   REMARKS
GRAND FORKS    MOSUNNY   73  62  68 SE18      29.98F
GRND FRKS AFB  SUNNY     72  63  74 S12       29.98F
DEVILS LAKE    SUNNY     73  66  78 SE14      29.95S
$$

NDZ022-023-025-028>030-036>039-047>053-281700-
SOUTHEAST NORTH DAKOTA

CITY           SKY/WX    TMP DP  RH WIND       PRES   REMARKS
FARGO          SUNNY     72  61  68 SE21G26   30.01F
JAMESTOWN      MOSUNNY   73  66  78 S15       29.95S
$$





USA.gov is the U.S. government's official web portal to all federal, state and local government web resources and services.